Northway Airport
PAOR : now visible

Airfield :











YOU CAN JOIN US ON...

 
LOGIN :

Register | Disclaimer

   EN    FR    IT 

 









Legend :    VFR   Marginal VFR   IFR   Intensive IFR   Very Intensive IFR
Visi :
Ceiling :
>= 8 km
>= 3000ft
5 to 8 km
1000 to 3000 ft
1500m to 5 km
500 to 1000 ft
800 to 1500m
200 to 500 ft
< 800m
< 200 ft
Symbols :   Thunderstorms  Fog  Heavy snow  Heavy precipitations  Wind > 20 kt






- Airport Elevation : 1715 ft
- IATA code : ORT


PAOR - Northway

CURRENT METAR :
  • 042253Z 30003KT 6SM -SN OVC043 M12/M16 A2972 RMK AO2 SLP120 T11221156

EXPIRED METARs :
  • 042153Z 31003KT 9SM -SN OVC043 M13/M16 A2974 RMK AO2 SLP126 T11281156

TAF PAOR
Valid from the 05 at 00:00 until the 06 at 00:00 UTC


042339Z 0500/0524 VRB05KT 6SM -SN OVC040
FM050400 VRB03KT P6SM BKN025 OVC050
PAZA FIR / North America



MET'MAP, your aeronautical weather chart ! - Copyright ORBIFLY December 2007 - Disclaimer

ORBIFLY MET'MAP TEAM :

Programming & Development : Alexandra Zaïnal
Concept & original design : Baudouin d'Aumeries
Assistance for programming : Marc-Olivier Méhu
Technical & hardware support : Manuel Goepfert

Contact : metmap@orbifly.com




SOURCES & CREDITS :

   NOAA       Earth
Advisory